Terminal Aerodrome Forecast
Issued by NWS

Home | Current Version | Previous Version | Text Only | Print | Product List | Glossary On
Versions: 1 2 3 4 5 6 7 8 9 10 11 12 13
000
FTUS45 KABQ 270529
TAFGUP
TAF
KGUP 270529Z 2706/2806 28010KT P6SM BKN120
     FM270800 26008KT P6SM SCT090 SCT130
     FM271500 23015G22KT P6SM FEW080
     FM272000 27015G22KT P6SM SCT080=

USA.gov is the U.S. government's official web portal to all federal, state and local government web resources and services.